EW1970 Weather Reports


time (UTC)temp
C
wind
direction
speed
KPH
gust
KPH
rain 1hr
cm
rain 24hr
cm
rain mn
cm
humidity
%
barometer
mb
20260506150030 20 360 3.2 16.1 0.00 0.00 0.00 86 1012.4
20260506144536 22 332 1.6 20.9 0.00 0.00 0.00 80 1011.3
20260506143030 25 195 0.0 4.8 0.00 0.00 0.00 87 1011.0
20260506141526 25 300 0.0 3.2 0.00 0.00 0.00 88 1010.6
20260506140043 24 352 0.0 6.4 0.00 0.00 0.00 89 1010.9
20260506134533 23 124 0.0 4.8 0.00 0.00 0.00 91 1010.3
20260506133024 23 87 0.0 4.8 0.00 0.00 0.00 91 1010.4
20260506131535 23 227 0.0 3.2 0.00 0.00 0.00 91 1010.2
20260506130030 22 134 0.0 3.2 0.00 0.00 0.00 92 1010.1
20260506124526 22 143 0.0 3.2 0.00 0.00 0.00 92 1009.9
20260506123036 22 128 0.0 1.6 0.00 0.00 0.00 92 1009.7
20260506121505 22 264 0.0 0.0 0.00 0.00 0.00 91 1009.7
20260506120022 22 264 0.0 0.0 0.00 0.00 0.00 91 1009.8
20260506114507 22 264 0.0 0.0 0.00 0.00 0.00 91 1009.6
20260506113004 22 264 0.0 0.0 0.00 0.00 0.00 91 1009.8
20260506111507 23 264 0.0 0.0 0.00 0.00 0.00 90 1009.7
20260506110009 23 264 0.0 1.6 0.00 0.00 0.00 90 1009.9
20260506104523 23 261 0.0 3.2 0.00 0.00 0.00 90 1009.7
20260506103002 23 240 0.0 3.2 0.00 0.00 0.00 90 1009.6
20260506101504 23 128 0.0 3.2 0.00 0.00 0.00 89 1009.6
20260506100016 23 135 0.0 4.8 0.00 0.00 0.00 89 1009.4
20260506094514 23 33 0.0 4.8 0.00 0.00 0.00 89 1009.3
20260506093030 23 182 0.0 3.2 0.00 0.00 0.00 89 1008.9
20260506091502 23 142 0.0 3.2 0.00 0.00 0.00 89 1008.9
20260506090007 23 140 0.0 4.8 0.00 0.00 0.00 88 1008.6
20260506084511 23 62 0.0 3.2 0.00 0.00 0.00 88 1008.7
20260506083027 23 244 0.0 6.4 0.00 0.00 0.00 88 1008.6
20260506081521 23 236 1.6 8.0 0.00 0.00 0.00 88 1008.5
20260506073014 23 205 3.2 12.9 0.00 0.00 0.00 87 1008.9
20260506071520 23 348 1.6 11.3 0.00 0.00 0.00 87 1009.1
20260506061518 23 277 0.0 4.8 0.00 0.00 0.00 88 1008.9
20260506044533 23 277 1.6 14.5 0.00 0.00 0.00 88 1008.7
20260506043027 23 291 1.6 4.8 0.00 0.00 0.00 88 1008.8
20260506041514 23 107 1.6 8.0 0.00 0.00 0.00 88 1008.7
20260506040020 23 131 0.0 4.8 0.00 0.00 0.00 88 1008.6
20260506034522 24 283 1.6 12.9 0.00 0.00 0.00 87 1008.4
20260506033029 24 144 1.6 11.3 0.00 0.00 0.00 87 1008.3
20260506031540 24 146 0.0 9.7 0.00 0.00 0.00 86 1008.1
20260506030014 24 351 0.0 14.5 0.00 0.00 0.00 85 1008.0
20260506024506 25 30 0.0 6.4 0.00 0.00 0.00 83 1007.9
20260506023004 25 126 0.0 8.0 0.00 0.00 0.00 83 1007.4
20260506021508 25 149 1.6 8.0 0.00 0.00 0.00 82 1007.2
20260506020017 25 108 0.0 9.7 0.00 0.00 0.00 84 1006.8
20260506014523 25 107 0.0 6.4 0.00 0.00 0.00 83 1006.7
20260506013003 25 165 0.0 3.2 0.00 0.00 0.00 81 1006.7
20260506011510 25 205 0.0 9.7 0.00 0.00 0.00 81 1006.5
20260506010029 25 199 0.0 6.4 0.00 0.00 0.00 81 1006.6
20260506004517 26 183 0.0 3.2 0.00 0.00 0.00 81 1006.5
20260506003023 26 328 0.0 3.2 0.00 0.00 0.00 80 1006.5
20260506001504 26 175 0.0 3.2 0.00 0.00 0.00 78 1006.6
20260506000013 26 33 1.6 9.7 0.00 0.00 0.00 78 1006.6
20260505234514 27 226 0.0 8.0 0.00 0.00 0.00 77 1006.4
20260505233020 27 261 0.0 8.0 0.00 0.00 0.00 77 1006.2
20260505231521 27 269 0.0 16.1 0.00 0.00 0.00 78 1006.1
20260505230006 27 150 1.6 11.3 0.00 0.00 0.00 76 1006.1
20260505224533 27 115 0.0 9.7 0.00 0.00 0.00 76 1006.0
20260505223018 27 126 1.6 14.5 0.00 0.00 0.00 73 1006.0
20260505221522 27 266 1.6 8.0 0.00 0.00 0.00 74 1005.9
20260505220027 28 182 1.6 14.5 0.00 0.00 0.00 71 1006.1
20260505214512 28 300 1.6 14.5 0.00 0.00 0.00 73 1006.4
20260505213021 28 122 3.2 11.3 0.00 0.00 0.00 75 1006.5
20260505211522 28 63 0.0 16.1 0.00 0.00 0.00 75 1006.8
20260505210022 28 207 3.2 12.9 0.00 0.00 0.00 70 1006.8
20260505204527 28 339 1.6 11.3 0.00 0.00 0.00 71 1006.9
20260505203036 28 136 3.2 14.5 0.00 0.00 0.00 74 1007.1
20260505201519 28 167 1.6 14.5 0.00 0.00 0.00 72 1007.4
20260505200021 28 155 1.6 6.4 0.00 0.00 0.00 75 1007.7
20260505194526 28 155 0.0 14.5 0.00 0.00 0.00 74 1007.9
20260505193028 27 132 0.0 9.7 0.00 0.00 0.00 76 1008.1
20260505191518 27 221 1.6 14.5 0.00 0.00 0.00 78 1008.2
20260505190029 26 218 1.6 16.1 0.00 0.00 0.00 77 1008.3
20260505184525 26 71 1.6 9.7 0.00 0.00 0.00 78 1008.6
20260505183042 25 258 1.6 8.0 0.00 0.00 0.00 78 1008.7
20260505181503 25 114 1.6 14.5 0.00 0.00 0.00 79 1008.9
20260505180004 24 266 3.2 16.1 0.00 0.00 0.00 80 1009.1
20260505174504 25 248 3.2 12.9 0.00 0.00 0.00 80 1009.3
20260505173004 24 225 1.6 9.7 0.00 0.00 0.00 84 1009.3
20260505171507 23 219 0.0 9.7 0.00 0.00 0.00 83 1009.4
20260505170008 23 172 1.6 11.3 0.00 0.00 0.00 85 1009.5
20260505164503 23 250 1.6 11.3 0.00 0.00 0.00 85 1009.5
20260505163009 22 287 1.6 12.9 0.00 0.00 0.00 86 1009.5
20260505161508 22 270 1.6 12.9 0.00 0.00 0.00 87 1009.4
20260505153012 22 21 3.2 11.3 0.00 0.00 0.00 87 1009.6
20260505151506 22 212 3.2 11.3 0.00 0.00 0.00 87 1009.4